[[{"header":{"parameterUnit":"m.s-1","parameterCategory":1,"la1":30.2991,"la2":30.254,"lo1":-89.0895,"lo2":-89.0444,"dy":0.0017,"dx":0.0017,"nx":28,"ny":28,"refTime":"2025-09-03T21:00:00:Z","depth":0,"parameterNumber":2,"parameterNumberName":"U-component_of_WINDS"},"data":[0,0,0,0,0,0,0,0,0,0,0,0,0,0,0,0,0,0,0,0,0,0,0,0,0,0,0,0,0,0,0,0,0,0,0,0,0,0,0,0,0,0,0,0,0,0,0,0,0,0,0,0,0,0,0,0,0,0,-1.7476,-1.7477,0,-1.7508,-1.7509,-1.7509,-1.7463,-1.7461,-1.7459,-1.7458,-1.7491,-1.7494,-1.7496,0,0,0,0,0,0,0,0,0,0,0,0,0,-1.7377,-1.7379,-1.7476,-1.7477,-1.7477,-1.7508,-1.7509,-1.7509,-1.7463,-1.7461,-1.7459,-1.7457,-1.749,-1.7493,-1.7496,0,0,0,0,0,0,0,0,0,0,0,0,0,-1.7415,-1.7379,-1.7476,-1.7458,-1.7457,-1.7508,-1.7509,-1.7509,-1.7463,-1.7461,-1.7459,-1.7456,-1.7489,-1.7493,-1.7497,-1.7568,0,0,-1.7508,-1.7509,0,0,0,0,0,0,0,0,-1.7413,-1.7419,-1.746,-1.7459,-1.7458,-1.7479,-1.7486,-1.7529,-1.7464,-1.7461,-1.7458,-1.7455,-1.7489,-1.7493,-1.7504,-1.7569,-1.7571,-1.7508,-1.751,-1.7512,-1.7513,0,0,0,0,0,0,0,-1.7411,-1.7418,-1.7489,-1.7461,-1.746,-1.7448,-1.7451,-1.7494,-1.7488,-1.7461,-1.7458,-1.7462,-1.7488,-1.7501,-1.7504,-1.7571,-1.7508,-1.7511,-1.7513,-1.7515,-1.7698,-1.77,0,0,0,0,0,0,-1.741,-1.7416,-1.7488,-1.749,-1.7429,-1.7452,-1.7455,-1.7475,-1.7488,-1.7487,-1.7464,-1.746,-1.7496,-1.75,-1.7505,-1.7591,-1.7512,-1.7515,-1.7517,-1.7695,-1.7698,-1.7701,0,0,0,0,0,0,-1.7408,-1.7417,-1.7487,-1.7452,-1.746,-1.7457,-1.7479,-1.7477,-1.7489,-1.749,-1.7489,-1.7478,-1.7494,-1.75,-1.7553,-1.7591,-1.7517,-1.752,-1.7692,-1.7696,-1.77,-1.7762,0,0,0,0,0,0,-1.7405,-1.7417,-1.7443,-1.7453,-1.7462,-1.7534,-1.7481,-1.7479,-1.7495,-1.749,-1.7503,-1.7503,-1.7493,-1.7548,-1.7556,-1.7595,-1.7523,-1.7689,-1.7694,-1.7699,-1.7756,-1.7767,-1.7777,0,0,0,0,0,-1.7402,-1.7459,-1.7445,-1.7454,-1.7495,-1.7536,-1.7541,-1.7528,-1.7499,-1.7526,-1.7527,-1.7502,-1.7585,-1.7553,-1.7563,-1.7603,-1.7686,-1.7692,-1.7698,-1.7751,-1.7765,-1.7776,0,0,0,0,0,0,-1.7454,-1.746,-1.7444,-1.7506,-1.7521,-1.7528,-1.7562,-1.7543,-1.7566,-1.756,-1.7543,-1.7547,-1.7603,-1.7608,-1.7572,-1.7673,-1.7631,-1.7639,-1.7668,-1.7681,-1.7691,-1.7689,-1.7526,0,0,0,0,0,-1.7473,-1.7505,-1.7508,-1.7563,-1.7571,-1.7565,-1.7582,-1.7571,-1.7586,-1.7592,-1.7596,-1.7612,-1.7641,-1.7661,-1.7688,-1.7756,-1.7759,-1.7788,-1.7799,-1.7807,-1.7815,-1.7853,-1.7866,-1.7721,-1.7721,-1.7721,0,0,-1.7512,-1.7519,-1.754,-1.7574,-1.7583,-1.7618,-1.7571,-1.7609,-1.7634,-1.7597,-1.7648,-1.7652,-1.7668,-1.7729,-1.7755,-1.7734,-1.7856,-1.7815,-1.7822,-1.7825,-1.786,-1.7874,-1.7886,-1.7725,-1.7725,-1.7724,0,0,-1.7601,-1.7609,-1.7656,-1.7667,-1.7683,-1.7679,-1.769,-1.77,-1.7702,-1.7751,-1.7725,-1.7755,-1.7806,-1.7819,-1.7832,-1.7927,-1.7906,-1.7936,-1.7991,-1.8028,-1.8039,-1.8049,-1.8084,-1.8097,-1.7944,-1.7944,-1.7944,0,-1.7648,-1.7698,-1.7682,-1.7723,-1.7738,-1.7707,-1.7755,-1.7766,-1.779,-1.7802,-1.7778,-1.7842,-1.785,-1.7915,-1.7938,-1.7949,-1.7962,-1.7935,-1.8039,-1.8049,-1.8058,-1.8091,-1.8104,-1.7948,-1.7947,-1.7947,-1.7946,0,-1.7755,-1.7791,-1.7826,-1.7851,-1.7871,-1.7914,-1.7906,-1.7928,-1.7915,-1.7914,-1.7966,-1.7975,-1.8004,-1.8018,-1.8005,-1.8081,-1.8067,-1.8041,-1.7999,-1.8076,-1.8107,-1.8119,-1.7953,-1.7952,-1.795,-1.795,0,0,-1.7878,-1.7894,-1.7908,-1.7919,-1.7934,-1.7962,-1.8004,-1.8033,-1.8052,-1.807,-1.8106,-1.815,-1.8127,-1.8142,-1.813,-1.8163,-1.8239,-1.8133,-1.8133,-1.8153,-1.8324,-1.8345,-1.836,-1.8224,-1.8227,-1.8229,-1.8323,0,-1.7968,-1.8042,-1.803,-1.8102,-1.8135,-1.8105,-1.8143,-1.8156,-1.8156,-1.8185,-1.8184,-1.8217,-1.8182,-1.8191,-1.8222,-1.8223,-1.8273,-1.8216,-1.8259,-1.8261,-1.8258,-1.8376,-1.8398,-1.8486,-1.8335,-1.8337,-1.8339,0,-1.8083,-1.8106,-1.8181,-1.8192,-1.8206,-1.8239,-1.8265,-1.8292,-1.8308,-1.8305,-1.8323,-1.8306,-1.8349,-1.8305,-1.8365,-1.8326,-1.8343,-1.8347,-1.835,-1.8354,-1.8305,-1.8385,-1.8514,-1.8528,-1.8357,-1.8356,-1.8355,0,-1.8168,-1.8216,-1.8268,-1.8278,-1.8292,-1.8317,-1.8324,-1.8337,-1.8355,-1.8378,-1.8389,-1.8417,-1.8432,-1.8454,-1.8445,-1.8413,-1.8507,-1.8462,-1.8508,-1.8508,-1.853,-1.8529,-1.8665,-1.8538,-1.8538,-1.8538,-1.8537,0,-1.827,-1.8318,-1.8306,-1.8338,-1.8391,-1.8376,-1.8429,-1.8432,-1.8444,-1.8477,-1.8453,-1.8484,-1.8469,-1.85,-1.8493,-1.8545,-1.8551,-1.8552,-1.855,-1.8555,-1.8555,-1.8566,-1.8561,-1.8541,-1.854,-1.854,-1.8539,0,-1.8374,-1.8368,-1.8423,-1.8431,-1.8435,-1.8473,-1.8481,-1.8512,-1.8509,-1.8551,-1.856,-1.8557,-1.8592,-1.8585,-1.8623,-1.8618,-1.8684,-1.8673,-1.8679,-1.8677,-1.8723,-1.872,-1.8873,-1.8893,-1.8752,-1.8753,-1.8754,0,-1.844,-1.8476,-1.8489,-1.8509,-1.8518,-1.8551,-1.857,-1.8557,-1.8577,-1.8598,-1.8626,-1.8658,-1.8684,-1.8741,-1.8742,-1.8771,-1.8762,-1.8814,-1.8767,-1.8771,-1.8765,-1.8764,-1.8768,-1.8824,-1.8826,-1.8827,-1.8828,0,-1.856,-1.8555,-1.8583,-1.861,-1.8633,-1.8654,-1.8673,-1.8691,-1.8679,-1.8704,-1.8739,-1.8759,-1.8798,-1.8831,-1.8858,-1.8865,-1.8846,-1.8843,-1.8855,-1.8862,-1.8864,-1.8865,-1.8706,-1.884,-1.8838,-1.8838,-1.8837,-1.8836,-1.8648,-1.8679,-1.8693,-1.8726,-1.8738,-1.8756,-1.8786,-1.8787,-1.8816,-1.8847,-1.8838,-1.8878,-1.8893,-1.8928,-1.8939,-1.8971,-1.8951,-1.8969,-1.8974,-1.8979,-1.8985,-1.8858,-1.8975,-1.8975,-1.8975,-1.8974,-1.8974,0,-1.8767,-1.8775,-1.8805,-1.8832,-1.8857,-1.8836,-1.8855,-1.8878,-1.8914,-1.893,-1.8956,-1.8997,-1.9029,-1.9033,-1.9064,-1.9088,-1.908,-1.9097,-1.9096,-1.9098,-1.9,-1.8987,-1.9103,-1.9103,-1.9103,-1.9103,-1.9103,-1.9103,-1.8832,-1.8885,-1.8882,-1.894,-1.8948,-1.8987,-1.9001,-1.9018,-1.903,-1.9077,-1.9104,-1.9106,-1.9118,-1.9149,-1.9178,-1.9178,-1.9191,-1.9212,-1.9209,-1.9118,-1.9105,-1.9093,-1.908,-1.9215,-1.9215,-1.9305,-1.9306,-1.9307]},{"header":{"parameterUnit":"m.s-1","parameterCategory":1,"la1":30.2991,"la2":30.254,"lo1":-89.0895,"lo2":-89.0444,"dy":0.0017,"dx":0.0017,"nx":28,"ny":28,"refTime":"2025-09-03T21:00:00:Z","depth":0,"parameterNumber":3,"parameterNumberName":"V-component_of_WINDS"},"data":[0,0,0,0,0,0,0,0,0,0,0,0,0,0,0,0,0,0,0,0,0,0,0,0,0,0,0,0,0,0,0,0,0,0,0,0,0,0,0,0,0,0,0,0,0,0,0,0,0,0,0,0,0,0,0,0,0,0,-1.5819,-1.5819,0,-1.5807,-1.5806,-1.5806,-1.5756,-1.5755,-1.5754,-1.5753,-1.5741,-1.5742,-1.5743,0,0,0,0,0,0,0,0,0,0,0,0,0,-1.58,-1.5801,-1.5819,-1.5819,-1.5819,-1.5807,-1.5806,-1.5806,-1.5756,-1.5755,-1.5754,-1.5752,-1.5741,-1.5742,-1.5743,0,0,0,0,0,0,0,0,0,0,0,0,0,-1.58,-1.5801,-1.5819,-1.5792,-1.579,-1.5807,-1.5806,-1.5806,-1.5757,-1.5755,-1.5753,-1.5752,-1.5741,-1.5742,-1.5743,-1.5785,0,0,-1.5746,-1.5747,0,0,0,0,0,0,0,0,-1.58,-1.5801,-1.5796,-1.5794,-1.5791,-1.5781,-1.5795,-1.5799,-1.5757,-1.5769,-1.5753,-1.5751,-1.5756,-1.5756,-1.5757,-1.5784,-1.5783,-1.5746,-1.5747,-1.5748,-1.5748,0,0,0,0,0,0,0,-1.58,-1.5801,-1.5814,-1.5796,-1.5793,-1.5781,-1.5779,-1.5796,-1.5773,-1.5768,-1.5765,-1.5764,-1.5754,-1.5756,-1.5757,-1.5783,-1.5746,-1.5747,-1.5748,-1.5749,-1.5844,-1.5846,0,0,0,0,0,0,-1.5804,-1.5802,-1.5814,-1.5814,-1.5792,-1.5783,-1.5781,-1.5786,-1.5772,-1.5768,-1.5765,-1.5761,-1.5755,-1.5755,-1.5756,-1.5804,-1.5748,-1.5749,-1.5749,-1.5842,-1.5844,-1.5846,0,0,0,0,0,0,-1.5804,-1.5806,-1.5815,-1.5807,-1.5807,-1.5785,-1.5792,-1.5787,-1.5789,-1.577,-1.5766,-1.5772,-1.5754,-1.5754,-1.5778,-1.5803,-1.5749,-1.575,-1.584,-1.5843,-1.5845,-1.5901,0,0,0,0,0,0,-1.5804,-1.5806,-1.5822,-1.5807,-1.5808,-1.5837,-1.5793,-1.5788,-1.5791,-1.5786,-1.5775,-1.5771,-1.5752,-1.5776,-1.5779,-1.5804,-1.5751,-1.5838,-1.5841,-1.5845,-1.5897,-1.5906,-1.5913,0,0,0,0,0,-1.5803,-1.5838,-1.5823,-1.5824,-1.5827,-1.5839,-1.5839,-1.5816,-1.5793,-1.5809,-1.5796,-1.5772,-1.58,-1.5779,-1.5782,-1.5807,-1.5836,-1.584,-1.5844,-1.5894,-1.5904,-1.5913,0,0,0,0,0,0,-1.5856,-1.5836,-1.5818,-1.585,-1.5846,-1.583,-1.5849,-1.5828,-1.5831,-1.5826,-1.5798,-1.5796,-1.5824,-1.5818,-1.5795,-1.5847,-1.5814,-1.5819,-1.585,-1.586,-1.5868,-1.5869,-1.5752,0,0,0,0,0,-1.5871,-1.5883,-1.5864,-1.5893,-1.5893,-1.5871,-1.5876,-1.5859,-1.5854,-1.5853,-1.5842,-1.5839,-1.5847,-1.5853,-1.5859,-1.5896,-1.5893,-1.5914,-1.5922,-1.5929,-1.5934,-1.5953,-1.5963,-1.586,-1.586,-1.586,0,0,-1.5903,-1.5893,-1.5902,-1.5904,-1.5899,-1.5912,-1.5871,-1.5886,-1.5895,-1.5855,-1.5877,-1.5869,-1.5863,-1.5894,-1.5906,-1.5889,-1.5961,-1.5934,-1.594,-1.5941,-1.5958,-1.5968,-1.5977,-1.5863,-1.5862,-1.5862,0,0,-1.5968,-1.5961,-1.5985,-1.5981,-1.5974,-1.596,-1.5966,-1.5953,-1.5946,-1.5967,-1.5938,-1.5948,-1.5963,-1.596,-1.5961,-1.6024,-1.6002,-1.6027,-1.6069,-1.6088,-1.6096,-1.6103,-1.6126,-1.6135,-1.6031,-1.6032,-1.6032,0,-1.6008,-1.6026,-1.6,-1.6017,-1.6019,-1.5983,-1.6007,-1.6004,-1.6001,-1.6003,-1.5983,-1.6001,-1.5995,-1.6024,-1.604,-1.6041,-1.6047,-1.6029,-1.6097,-1.6104,-1.611,-1.6132,-1.6141,-1.6035,-1.6034,-1.6034,-1.6034,0,-1.6076,-1.6089,-1.6109,-1.6106,-1.611,-1.6131,-1.6108,-1.6115,-1.6098,-1.6085,-1.6107,-1.6099,-1.6103,-1.6108,-1.6091,-1.6135,-1.6125,-1.6102,-1.6068,-1.6123,-1.6143,-1.6152,-1.6039,-1.6038,-1.6037,-1.6037,0,0,-1.6175,-1.6157,-1.6165,-1.6163,-1.6153,-1.6162,-1.6181,-1.6185,-1.6192,-1.619,-1.6206,-1.6219,-1.6197,-1.6198,-1.618,-1.6197,-1.6248,-1.6171,-1.617,-1.6186,-1.6297,-1.6316,-1.6326,-1.6233,-1.6234,-1.6235,-1.6298,0,-1.6237,-1.6269,-1.6246,-1.6281,-1.6293,-1.6258,-1.6275,-1.6271,-1.626,-1.6268,-1.6255,-1.6266,-1.6236,-1.6236,-1.6251,-1.6239,-1.627,-1.6234,-1.6248,-1.6249,-1.6251,-1.6336,-1.6356,-1.6416,-1.6306,-1.6307,-1.6308,0,-1.6314,-1.6316,-1.6353,-1.634,-1.6344,-1.6359,-1.6361,-1.6369,-1.6364,-1.6354,-1.6355,-1.6333,-1.6351,-1.6317,-1.6342,-1.6318,-1.6322,-1.6317,-1.6318,-1.632,-1.6283,-1.6341,-1.6434,-1.6443,-1.632,-1.6319,-1.6318,0,-1.6384,-1.6395,-1.6418,-1.6418,-1.6403,-1.6415,-1.6409,-1.6402,-1.6406,-1.6407,-1.6409,-1.6413,-1.6415,-1.6419,-1.6398,-1.6375,-1.6426,-1.639,-1.642,-1.642,-1.6433,-1.6433,-1.6529,-1.6434,-1.6434,-1.6434,-1.6434,0,-1.6456,-1.648,-1.6449,-1.6464,-1.649,-1.6463,-1.649,-1.648,-1.6474,-1.6487,-1.6457,-1.6469,-1.6441,-1.645,-1.6434,-1.6458,-1.6459,-1.6452,-1.6448,-1.6456,-1.6457,-1.6459,-1.6455,-1.6436,-1.6436,-1.6435,-1.6435,0,-1.6539,-1.6519,-1.6542,-1.6526,-1.6523,-1.6543,-1.653,-1.6543,-1.6529,-1.6545,-1.6547,-1.6527,-1.6536,-1.6516,-1.6523,-1.6512,-1.6546,-1.6534,-1.6548,-1.6545,-1.6576,-1.6574,-1.6678,-1.6691,-1.6587,-1.6588,-1.6588,0,-1.6587,-1.6605,-1.6591,-1.6597,-1.6593,-1.6603,-1.6607,-1.6581,-1.6586,-1.6581,-1.6595,-1.6602,-1.6606,-1.6623,-1.6609,-1.6614,-1.6603,-1.6639,-1.6604,-1.6611,-1.6605,-1.6605,-1.6607,-1.6647,-1.6649,-1.665,-1.665,0,-1.6675,-1.6664,-1.667,-1.6673,-1.6678,-1.6679,-1.6678,-1.6685,-1.6657,-1.6664,-1.6674,-1.6677,-1.6684,-1.6692,-1.6694,-1.6688,-1.6666,-1.6661,-1.6669,-1.6677,-1.6685,-1.6682,-1.6569,-1.666,-1.6659,-1.6658,-1.6657,-1.6657,-1.6743,-1.6757,-1.6749,-1.6757,-1.6753,-1.6753,-1.6765,-1.6752,-1.6759,-1.6763,-1.6747,-1.676,-1.6754,-1.6754,-1.6751,-1.6762,-1.6745,-1.6756,-1.6759,-1.6762,-1.6767,-1.6682,-1.6762,-1.6761,-1.6761,-1.6761,-1.6761,0,-1.683,-1.6823,-1.6831,-1.683,-1.6836,-1.6813,-1.681,-1.6817,-1.6829,-1.6825,-1.683,-1.6841,-1.6848,-1.6834,-1.6839,-1.685,-1.684,-1.6853,-1.6852,-1.6852,-1.6781,-1.6775,-1.6861,-1.6861,-1.6861,-1.6861,-1.6861,-1.6861,-1.6877,-1.6899,-1.6888,-1.6909,-1.6901,-1.6914,-1.6914,-1.6914,-1.6911,-1.6924,-1.693,-1.6921,-1.6913,-1.6917,-1.6923,-1.6919,-1.6922,-1.6939,-1.6932,-1.6866,-1.6856,-1.6847,-1.6841,-1.694,-1.694,-1.7001,-1.7002,-1.7002]}]]